Home   Weather   Black Mountain   Past weeks

Flag for USA Past Weather in Black Mountain, North Carolina, USA — Yesterday and Last 2 Weeks

Now
83 °F

Scattered clouds.


Feels Like: 86 °F
Forecast: 66 / 83 °F
Wind: No wind

Location: Asheville Regional Airport

Current Time: Aug 16, 2017 at 1:34:40 pm

Latest Report: Aug 16, 2017 at 12:54 pm


Visibility: 10 mi

Pressure: 30.05 "Hg (27.67 "Hg at 729m altitude)

Humidity: 63%

Dew Point: 69 °F

Location of Black MountainLocation

Past Weather in Black Mountain — Graph

°F

Black Mountain Temperature Yesterday

Maximum temperature yesterday: 84 °F (at 4:54 pm)
Minimum temperature yesterday: 70 °F (at 3:34 am)
Average temperature yesterday: 75 °F

High & Low Weather Summary for the Past Weeks

 TemperatureHumidityPressure
High84 °F (Aug 4, 3:54 pm)100% (Aug 2, 1:54 am)30.29 "Hg (Aug 2, 1:54 am)
Low55 °F (Aug 6, 6:54 am)41% (Aug 5, 1:54 pm)29.88 "Hg (Aug 15, 4:54 am)
Average71 °F88%30.06 "Hg
* Reported Aug 1 11:54 am — Aug 16 11:54 am, Black Mountain. Weather by CustomWeather, © 2017

Note: Actual official high and low records may vary slightly from our data, if they occured in-between our weather recording intervals... More about our weather records

Advertising

Black Mountain Weather History for the Previous 24 Hours

Scroll right to see more
 ConditionsComfort  
Time TempWeatherWind HumidityBarometerVisibility
11:54 am
Wed, Aug 16
83 °FSunny.5 mph63%30.06 "Hg10 mi
10:54 am80 °FSunny.5 mph71%30.07 "Hg10 mi
9:54 am75 °FSunny.3 mph85%30.08 "Hg10 mi
8:54 am72 °FSunny.No wind87%30.08 "Hg10 mi
7:54 am67 °FSunny.No wind100%30.06 "Hg10 mi
6:54 am66 °FSunny.No wind100%30.04 "Hg10 mi
5:54 am66 °FClear.No wind100%30.02 "Hg10 mi
4:54 am68 °FClear.No wind100%29.99 "Hg10 mi
3:54 am68 °FClear.3 mph100%29.99 "Hg10 mi
2:54 am68 °FClear.5 mph100%29.99 "Hg10 mi
1:54 am69 °FClear.No wind100%29.99 "Hg10 mi
12:54 am70 °FClear.No wind100%29.99 "Hg10 mi
11:54 pm
Tue, Aug 15
71 °FClear.No wind100%29.98 "Hg10 mi
10:54 pm72 °FClear.No wind97%29.98 "Hg10 mi
9:54 pm74 °FClear.No wind91%29.96 "Hg10 mi
8:54 pm76 °FClear.6 mph82%29.95 "Hg10 mi
7:54 pm80 °FSunny.8 mph69%29.93 "Hg10 mi
6:54 pm82 °FSunny.9 mph65%29.91 "Hg10 mi
5:54 pm83 °FPartly sunny.12 mph57%29.89 "Hg10 mi
4:54 pm84 °FPassing clouds.8 mph63%29.88 "Hg10 mi
3:54 pm83 °FPassing clouds.8 mph63%29.89 "Hg10 mi
2:54 pm82 °FPassing clouds.5 mph67%29.92 "Hg10 mi
1:54 pm81 °FOvercast.9 mph72%29.93 "Hg10 mi
Weather by CustomWeather, © 2017

See weather overviewHow to use our weather pages